When you browse on this site, cookies collect data to enhance your experience and personalize the content and advertising you see.
Visit our Privacy Policy to learn more. By continuing to use the site, you agree to this use of cookies and data.

Hourly Weather Kirov

Today, 5 August, Wednesday

Time Temperature Precipitation Wind Pressure Humidity
00:00 +20°C° 0 mm 3 mps 755 mmHg 47%
01:00 +20°C° 0 mm 3 mps 755 mmHg 50%
02:00 +19°C° 0 mm 3 mps 755 mmHg 53%
03:00 +19°C° 0 mm 3 mps 755 mmHg 57%
04:00 +19°C° 0 mm 3 mps 755 mmHg 60%
05:00 +19°C° 0 mm 3 mps 755 mmHg 62%
06:00 +18°C° 0 mm 3 mps 755 mmHg 65%
07:00 +20°C° 0 mm 4 mps 755 mmHg 59%
08:00 +22°C° 0 mm 4 mps 755 mmHg 54%
09:00 +25°C° 0 mm 5 mps 755 mmHg 48%
10:00 +26°C° 0 mm 5 mps 755 mmHg 45%
11:00 +28°C° 0 mm 5 mps 755 mmHg 42%
12:00 +29°C° 0 mm 5 mps 754 mmHg 39%
13:00 +30°C° 0 mm 5 mps 754 mmHg 39%
14:00 +30°C° 0 mm 5 mps 754 mmHg 40%
15:00 +32°C° 0 mm 5 mps 754 mmHg 40%
16:00 +32°C° 0 mm 5 mps 754 mmHg 41%
17:00 +32°C° 0 mm 6 mps 753 mmHg 42%
18:00 +32°C° 0 mm 6 mps 753 mmHg 43%
19:00 +29°C° 0 mm 5 mps 754 mmHg 48%
20:00 +28°C° 0 mm 4 mps 754 mmHg 54%
21:00 +26°C° 0 mm 4 mps 754 mmHg 59%
22:00 +26°C° 0 mm 4 mps 754 mmHg 61%
23:00 +25°C° 0 mm 4 mps 754 mmHg 63%

Tomorrow, 6 August, Thursday

Time Temperature Precipitation Wind Pressure Humidity
00:00 +25°C° 0 mm 4 mps 754 mmHg 65%
01:00 +23°C° 0 mm 4 mps 754 mmHg 68%
02:00 +23°C° 0 mm 4 mps 754 mmHg 71%
03:00 +22°C° 0 mm 4 mps 754 mmHg 75%
04:00 +22°C° 0 mm 4 mps 754 mmHg 76%
05:00 +22°C° 0 mm 3 mps 755 mmHg 77%
06:00 +22°C° 0 mm 3 mps 755 mmHg 79%
07:00 +25°C° 0 mm 4 mps 755 mmHg 71%
08:00 +27°C° 0 mm 4 mps 755 mmHg 63%
09:00 +29°C° 0 mm 4 mps 755 mmHg 55%
10:00 +30°C° 0 mm 5 mps 755 mmHg 50%
11:00 +33°C° 0 mm 5 mps 755 mmHg 45%
12:00 +34°C° 0 mm 5 mps 755 mmHg 40%
13:00 +35°C° 0 mm 5 mps 755 mmHg 37%
14:00 +36°C° 0 mm 5 mps 755 mmHg 34%
15:00 +37°C° 0 mm 5 mps 755 mmHg 30%
16:00 +36°C° 0 mm 5 mps 755 mmHg 31%
17:00 +36°C° 0 mm 5 mps 755 mmHg 32%
18:00 +35°C° 0 mm 5 mps 755 mmHg 33%
19:00 +33°C° 0 mm 4 mps 755 mmHg 38%
20:00 +30°C° 0 mm 4 mps 755 mmHg 44%
21:00 +29°C° 0 mm 4 mps 755 mmHg 49%
22:00 +28°C° 0 mm 4 mps 755 mmHg 52%
23:00 +27°C° 0 mm 4 mps 755 mmHg 55%

Day after tomorrow, 7 August, Friday

Time Temperature Precipitation Wind Pressure Humidity
00:00 +27°C° 0 mm 4 mps 755 mmHg 59%
01:00 +26°C° 0 mm 4 mps 755 mmHg 62%
02:00 +26°C° 0 mm 4 mps 755 mmHg 65%
03:00 +26°C° 0 mm 4 mps 755 mmHg 68%
04:00 +25°C° 0 mm 4 mps 755 mmHg 70%
05:00 +25°C° 0 mm 4 mps 755 mmHg 72%
06:00 +25°C° 0 mm 4 mps 755 mmHg 73%
07:00 +26°C° 0 mm 4 mps 755 mmHg 67%
08:00 +28°C° 0 mm 4 mps 756 mmHg 61%
09:00 +30°C° 0 mm 4 mps 756 mmHg 54%
10:00 +32°C° 0 mm 4 mps 756 mmHg 49%
11:00 +34°C° 0 mm 4 mps 756 mmHg 43%
12:00 +35°C° 0 mm 4 mps 756 mmHg 37%
13:00 +35°C° 0 mm 4 mps 755 mmHg 35%
14:00 +36°C° 0 mm 4 mps 755 mmHg 34%
15:00 +36°C° 0 mm 4 mps 755 mmHg 32%
16:00 +35°C° 0 mm 5 mps 755 mmHg 32%
17:00 +35°C° 0 mm 5 mps 754 mmHg 31%
18:00 +34°C° 0 mm 5 mps 754 mmHg 31%
19:00 +33°C° 0 mm 5 mps 754 mmHg 34%
20:00 +30°C° 0 mm 4 mps 754 mmHg 37%
21:00 +28°C° 0 mm 4 mps 755 mmHg 40%
22:00 +27°C° 0 mm 4 mps 754 mmHg 42%
23:00 +26°C° 0 mm 4 mps 754 mmHg 45%

8 August, Saturday

Time Temperature Precipitation Wind Pressure Humidity
00:00 +25°C° 0 mm 4 mps 754 mmHg 48%
01:00 +25°C° 0 mm 4 mps 754 mmHg 51%
02:00 +24°C° 0 mm 3 mps 754 mmHg 54%
03:00 +22°C° 0 mm 3 mps 754 mmHg 57%
04:00 +22°C° 0 mm 3 mps 754 mmHg 60%
05:00 +22°C° 0 mm 4 mps 754 mmHg 64%
06:00 +22°C° 0 mm 4 mps 754 mmHg 67%
07:00 +25°C° 0 mm 4 mps 754 mmHg 63%
08:00 +27°C° 0 mm 4 mps 754 mmHg 59%
09:00 +28°C° 0 mm 5 mps 754 mmHg 55%
10:00 +30°C° 0 mm 5 mps 754 mmHg 49%
11:00 +32°C° 0 mm 5 mps 754 mmHg 44%
12:00 +33°C° 0 mm 5 mps 753 mmHg 38%
13:00 +34°C° 0 mm 5 mps 753 mmHg 37%
14:00 +34°C° 0 mm 5 mps 753 mmHg 36%
15:00 +34°C° 0 mm 5 mps 752 mmHg 35%
16:00 +34°C° 0 mm 5 mps 752 mmHg 36%
17:00 +33°C° 0 mm 5 mps 752 mmHg 38%
18:00 +32°C° 0 mm 6 mps 752 mmHg 39%
19:00 +30°C° 0 mm 5 mps 752 mmHg 44%
20:00 +28°C° 0 mm 5 mps 752 mmHg 49%
21:00 +27°C° 0 mm 5 mps 752 mmHg 54%
22:00 +26°C° 0 mm 5 mps 752 mmHg 57%
23:00 +26°C° 0 mm 5 mps 752 mmHg 59%

9 August, Sunday

Time Temperature Precipitation Wind Pressure Humidity
00:00 +25°C° 0 mm 5 mps 752 mmHg 62%
01:00 +23°C° 0 mm 5 mps 752 mmHg 59%
02:00 +23°C° 0 mm 5 mps 752 mmHg 56%
03:00 +22°C° 0 mm 5 mps 752 mmHg 53%
04:00 +22°C° 0 mm 5 mps 752 mmHg 52%
05:00 +21°C° 0 mm 5 mps 752 mmHg 51%
06:00 +21°C° 0 mm 5 mps 752 mmHg 50%
07:00 +22°C° 0 mm 5 mps 752 mmHg 47%
08:00 +24°C° 0 mm 6 mps 752 mmHg 44%
09:00 +26°C° 0 mm 6 mps 752 mmHg 41%
10:00 +27°C° 0 mm 6 mps 752 mmHg 38%
11:00 +29°C° 0 mm 6 mps 752 mmHg 35%
12:00 +30°C° 0 mm 6 mps 752 mmHg 32%
13:00 +30°C° 0 mm 6 mps 752 mmHg 30%
14:00 +32°C° 0 mm 6 mps 751 mmHg 29%
15:00 +32°C° 0 mm 5 mps 751 mmHg 27%
16:00 +32°C° 0 mm 5 mps 751 mmHg 27%
17:00 +30°C° 0 mm 5 mps 751 mmHg 27%
18:00 +30°C° 0 mm 5 mps 751 mmHg 27%
19:00 +28°C° 0 mm 5 mps 751 mmHg 30%
20:00 +26°C° 0 mm 4 mps 751 mmHg 33%
21:00 +23°C° 0 mm 4 mps 752 mmHg 36%
22:00 +23°C° 0 mm 4 mps 752 mmHg 38%
23:00 +22°C° 0 mm 5 mps 752 mmHg 40%

10 August, Monday

Time Temperature Precipitation Wind Pressure Humidity
00:00 +21°C° 0 mm 5 mps 752 mmHg 42%
01:00 +21°C° 0 mm 5 mps 752 mmHg 48%
02:00 +20°C° 0 mm 4 mps 752 mmHg 53%
03:00 +20°C° 0 mm 4 mps 752 mmHg 59%
04:00 +20°C° 0 mm 4 mps 752 mmHg 60%
05:00 +19°C° 0 mm 3 mps 752 mmHg 62%
06:00 +19°C° 0 mm 3 mps 752 mmHg 63%
07:00 +21°C° 0 mm 3 mps 752 mmHg 57%
08:00 +23°C° 0 mm 4 mps 752 mmHg 50%
09:00 +26°C° 0 mm 4 mps 752 mmHg 43%
10:00 +28°C° 0 mm 4 mps 752 mmHg 39%
11:00 +29°C° 0 mm 4 mps 752 mmHg 35%
12:00 +30°C° 0 mm 4 mps 752 mmHg 32%
13:00 +32°C° 0 mm 4 mps 752 mmHg 30%
14:00 +32°C° 0 mm 4 mps 752 mmHg 28%
15:00 +33°C° 0 mm 4 mps 751 mmHg 27%
16:00 +32°C° 0 mm 4 mps 751 mmHg 27%
17:00 +32°C° 0 mm 4 mps 751 mmHg 28%
18:00 +30°C° 0 mm 4 mps 751 mmHg 29%
19:00 +29°C° 0 mm 4 mps 752 mmHg 33%
20:00 +27°C° 0 mm 4 mps 752 mmHg 36%
21:00 +26°C° 0 mm 4 mps 752 mmHg 40%
22:00 +25°C° 0 mm 4 mps 752 mmHg 43%
23:00 +23°C° 0 mm 4 mps 752 mmHg 47%
Show more